GFSNIL_sfc_dewp_057.txt.gz
Dewpoint
22 25 26 28 28 29 30 31 32 32 32 32 32 32 33 33 34 33 34 33 34 34
24 25 27 27 28 30 31 31 31 32 32 32 32 32 32 32 31 31 31 32 33 33
25 25 27 28 29 30 30 31 32 32 31 31 31 32 32 32 32 32 32 32 32 31
26 27 28 29 30 30 31 31 30 30 30 30 30 31 31 31 31 31 32 32 31 31
27 28 28 29 29 30 30 29 29 30 30 30 30 30 30 31 31 32 32 32 33 33
27 27 28 28 29 30 29 28 29 30 30 30 30 31 30 30 31 31 31 32 33 33
27 28 28 29 30 29 28 29 30 30 31 30 30 31 31 31 32 32 32 33 34 34
28 28 29 29 29 29 29 30 30 30 30 31 31 32 32 32 33 35 36 36 36 38
28 28 28 29 29 29 29 28 29 30 31 32 33 39 41 42 39 39 39 38 38 38
27 28 28 29 29 29 29 30 31 32 34 35 35 42 44 44 42 41 40 41 40 39
28 28 28 29 30 30 30 31 33 35 35 35 36 43 45 46 43 42 41 41 41 38
28 28 29 30 30 31 32 33 34 36 37 38 39 44 46 44 42 41 41 40 39 38
28 29 30 31 32 32 33 36 39 39 39 41 41 43 45 44 43 41 40 40 38 41
30 31 32 31 32 35 38 38 38 38 39 39 40 41 46 44 43 42 40 39 37 37

GFSNIL_sfc_dewp_060.txt.gz
Dewpoint
22 25 26 27 28 28 29 30 31 31 32 32 32 32 32 33 33 32 33 32 32 33
24 24 26 26 28 30 30 31 30 32 32 31 31 32 32 32 31 32 32 32 32 32
24 25 27 28 29 29 30 31 31 31 31 30 31 31 31 31 32 32 32 32 32 32
26 27 27 28 29 29 30 31 30 30 29 30 30 30 30 30 30 31 31 32 32 32
27 28 28 28 28 29 29 29 29 29 29 30 30 30 30 30 30 30 30 31 31 32
27 27 27 28 28 28 28 29 29 29 29 30 31 31 31 30 30 31 30 30 31 32
27 27 28 28 28 28 29 29 29 29 30 30 30 31 31 31 31 31 32 32 32 32
27 28 28 28 28 29 29 29 30 30 29 30 31 31 32 34 35 36 36 35 34 35
27 27 28 28 28 29 29 30 30 30 31 32 33 39 42 41 41 41 42 41 40 40
27 27 28 28 28 29 30 30 31 32 33 34 35 41 43 44 43 42 42 42 41 41
27 27 28 28 29 30 31 31 32 34 35 36 38 44 45 45 43 43 42 42 42 41
27 27 28 29 31 31 32 32 34 37 39 39 39 43 44 43 41 41 41 42 42 41
28 29 30 31 32 32 33 36 39 39 39 41 39 42 44 43 41 41 41 42 41 43
29 30 31 31 31 34 35 38 38 38 38 39 40 41 42 44 42 43 42 41 40 39

GFSNIL_sfc_dewp_063.txt.gz
Dewpoint
27 30 28 29 29 29 30 30 32 31 31 31 31 31 31 32 32 32 32 32 32 32
25 27 29 29 30 31 30 30 29 30 31 30 30 30 31 32 31 31 31 32 32 32
26 26 29 29 29 29 29 30 31 30 29 30 30 30 31 32 32 31 32 32 32 32
27 27 28 28 28 29 29 28 28 29 30 30 30 30 30 31 31 31 31 32 32 31
28 28 27 27 27 26 27 28 29 29 30 30 30 30 30 31 31 31 31 31 31 32
27 27 27 26 26 26 27 28 29 30 30 30 30 31 31 31 31 31 31 31 31 31
26 27 27 27 27 27 27 28 29 30 30 31 31 31 31 32 32 32 32 33 33 33
27 27 27 27 27 28 29 29 30 30 31 31 32 32 34 36 37 37 37 38 37 37
26 27 27 27 28 29 30 30 31 31 32 33 33 39 42 42 41 41 41 41 42 42
26 26 27 28 29 30 31 31 32 32 33 34 35 42 44 44 42 42 42 42 42 42
26 26 27 29 30 30 31 32 32 33 35 37 39 44 45 44 41 41 40 40 41 41
26 27 29 30 30 31 32 32 33 36 38 39 39 43 44 42 41 41 41 41 42 42
27 28 30 30 31 31 31 34 35 37 39 40 39 42 44 42 40 41 41 41 41 45
28 30 31 32 31 33 34 35 37 38 38 39 40 41 42 42 40 41 40 42 43 43

GFSNIL_sfc_dewp_069.txt.gz
Dewpoint
33 34 32 32 32 31 31 31 32 31 30 28 28 30 30 31 32 31 31 33 32 33
27 29 31 32 31 32 31 30 29 29 29 28 27 27 30 31 30 31 31 32 33 33
29 29 30 30 30 31 29 30 29 28 26 28 25 26 29 31 31 31 33 33 33 33
29 29 29 29 29 29 28 25 24 24 25 24 25 25 27 28 30 31 32 32 32 33
29 30 29 28 27 24 23 23 22 22 22 22 25 26 28 30 30 32 31 32 33 33
29 30 29 27 24 23 22 21 21 22 23 24 27 29 30 31 32 31 32 33 33 33
29 29 27 24 24 23 22 21 22 24 26 29 30 30 31 32 33 34 34 34 35 35
28 26 24 24 24 23 22 23 25 26 28 30 32 32 33 35 37 37 38 39 38 39
24 24 24 24 23 23 24 25 26 27 29 31 32 37 39 39 39 41 41 41 41 41
23 23 24 23 23 26 26 26 27 29 30 31 33 39 41 42 41 41 41 41 41 40
22 23 24 24 25 25 26 28 30 31 32 34 35 40 41 43 41 41 40 40 39 40
23 24 24 25 25 26 28 29 31 32 33 33 35 41 42 41 41 40 39 39 40 40
24 25 25 25 27 28 29 30 31 32 34 38 38 40 41 41 41 40 40 38 39 40
26 24 24 25 27 29 29 29 34 35 36 36 37 40 41 42 39 38 38 39 38 39

GFSNIL_sfc_dewp_072.txt.gz
Dewpoint
34 36 35 34 34 33 33 34 34 32 32 30 30 30 30 31 32 31 31 30 31 32
29 32 33 32 31 34 33 33 30 31 31 30 29 28 28 30 29 30 30 31 31 32
29 29 30 31 31 31 31 31 31 30 28 28 27 26 26 28 29 30 31 32 32 32
30 29 29 30 30 30 30 28 26 26 26 25 25 24 25 25 27 29 30 32 32 31
29 30 30 29 28 27 24 25 24 24 24 24 24 25 26 28 29 30 31 31 31 31
30 30 30 29 26 24 23 23 23 23 24 25 27 28 29 30 30 30 31 32 32 33
30 30 28 26 25 25 24 23 22 24 25 27 28 31 32 32 32 32 33 34 35 35
29 26 25 25 25 25 24 23 24 25 26 27 30 30 31 32 34 36 37 38 38 39
26 25 26 25 25 24 25 25 26 26 28 30 30 36 38 38 38 39 40 41 42 40
24 25 25 25 24 25 25 26 26 30 30 30 32 38 40 41 39 41 41 41 41 39
24 24 25 25 25 25 25 26 29 29 30 31 32 38 40 41 40 40 39 40 39 40
25 25 26 26 26 25 26 29 28 28 30 31 33 40 41 40 39 39 40 40 39 39
26 26 26 26 25 26 29 28 29 29 32 36 35 39 41 41 40 39 40 38 38 40
27 27 26 24 25 29 29 28 30 34 34 34 36 39 42 42 38 39 36 36 37 37

GFSNIL_sfc_dewp_075.txt.gz
Dewpoint
35 36 35 33 33 32 32 33 33 32 31 30 30 30 30 30 30 30 31 30 30 31
29 31 32 31 30 32 33 33 31 30 30 30 30 29 28 29 28 29 29 30 30 30
29 29 30 30 30 30 30 31 31 30 28 28 28 27 27 28 28 28 30 30 31 31
28 29 29 30 30 29 28 26 25 25 26 25 25 24 24 24 25 27 28 30 31 32
29 30 30 30 28 26 24 25 25 24 24 24 25 25 25 27 28 29 29 31 32 31
29 29 30 27 25 24 24 24 24 24 24 25 26 27 29 31 32 32 31 31 30 31
29 29 26 25 25 25 25 24 24 24 25 27 27 29 31 31 31 31 32 34 35 35
28 25 25 25 25 25 25 24 25 25 26 28 30 30 31 32 32 34 35 36 36 37
25 25 25 25 25 25 25 25 26 26 30 30 30 36 37 36 37 38 39 40 41 42
24 25 25 25 25 25 25 25 25 28 29 29 29 36 38 40 37 39 41 41 41 40
25 25 25 25 26 26 26 25 26 29 28 29 30 37 39 40 39 39 39 38 39 40
26 26 26 26 26 26 25 26 29 28 28 29 30 39 40 39 39 40 40 39 40 39
27 27 27 27 26 25 28 29 29 29 31 36 35 38 40 40 40 37 39 38 38 38
28 27 27 26 24 29 29 29 30 33 34 34 35 37 41 40 38 38 37 37 35 36

GFSNIL_sfc_dewp_078.txt.gz
Dewpoint
37 38 36 33 33 32 32 32 33 32 31 30 30 30 30 30 30 29 30 29 29 31
30 31 31 31 30 32 32 33 31 31 31 30 30 29 28 29 28 28 28 29 29 29
29 29 30 30 29 30 30 29 27 26 26 26 26 25 25 26 27 26 28 28 29 29
29 29 30 30 29 27 26 25 25 25 25 25 25 24 24 24 25 25 26 28 29 30
29 30 29 29 27 25 24 25 25 25 25 25 25 25 25 26 26 28 30 31 31 31
29 29 29 26 25 24 24 24 25 24 24 25 26 27 27 28 31 32 31 31 31 31
29 27 25 25 25 25 25 24 24 24 25 27 27 30 31 31 31 31 31 31 33 33
27 25 24 25 25 25 25 25 25 25 26 27 30 29 30 31 32 32 33 35 37 38
25 25 25 25 25 25 25 25 26 26 26 29 29 34 36 34 36 37 38 38 39 41
25 25 26 25 25 26 26 26 26 25 27 29 29 36 37 37 37 39 40 40 39 38
25 26 26 26 26 26 26 26 25 27 29 29 29 36 38 39 38 38 39 39 39 39
26 26 27 27 27 27 25 27 28 28 29 28 30 38 39 38 38 40 38 38 38 39
27 27 27 27 27 25 29 28 29 29 30 35 34 38 39 39 39 37 39 36 37 40
28 28 28 27 25 28 28 28 29 31 32 32 33 35 39 41 37 37 37 38 37 36

GFSNIL_sfc_dewp_084.txt.gz
Dewpoint
36 37 36 35 33 33 32 32 32 31 30 30 30 30 29 30 30 29 29 28 28 29
32 32 32 31 31 32 32 32 29 27 25 25 25 25 25 26 26 26 26 27 27 27
29 30 30 30 29 29 28 26 25 25 25 25 25 25 24 25 25 25 26 26 26 26
29 29 29 29 28 27 26 24 24 25 25 25 25 25 24 24 25 25 26 26 27 27
30 29 29 29 27 25 24 24 24 25 25 25 25 25 25 25 26 26 27 28 29 30
28 29 28 25 24 24 24 24 25 25 25 25 26 26 26 27 27 29 29 30 30 30
28 27 25 24 24 24 24 24 24 25 25 26 27 27 27 27 29 30 29 30 31 31
28 26 24 25 25 25 25 25 25 26 26 26 26 25 27 30 30 30 31 31 32 34
27 26 25 25 26 26 26 26 26 26 26 26 26 34 36 34 31 33 34 36 37 39
27 26 26 26 26 26 26 26 26 26 26 27 28 35 37 38 34 36 37 38 39 36
27 26 26 26 27 27 27 27 26 27 28 28 28 37 38 39 36 36 36 37 38 38
28 26 27 27 27 27 27 25 28 28 28 28 29 37 38 35 35 37 37 38 38 37
28 27 27 28 27 27 25 28 28 27 28 32 32 36 38 37 37 37 37 37 37 39
28 28 28 28 27 26 27 28 27 28 30 31 33 34 36 37 35 36 38 37 38 38